GW1125 Weather Reports


time (UTC)temp
C
wind
direction
speed
KPH
gust
KPH
rain 1hr
cm
rain 24hr
cm
rain mn
cm
humidity
%
barometer
mb
20260507213617 18 66 3.2 4.8 0.00 0.00 0.00 54 1017.4
20260507213117 18 0.0 0.0 0.00 0.00 0.00 55 1017.6
20260507212618 17 31 4.8 9.7 0.00 0.00 0.00 54 1017.6
20260507212117 18 48 3.2 6.4 0.00 0.00 0.00 56 1017.7
20260507211617 17 0.0 0.0 0.00 0.00 0.00 60 1017.8
20260507211117 17 135 1.6 4.8 0.00 0.00 0.00 58 1017.9
20260507210637 16 109 0.0 1.6 0.00 0.00 0.00 62 1017.9
20260507210117 15 45 4.8 9.7 0.00 0.00 0.00 63 1018.0
20260507205617 15 48 3.2 9.7 0.00 0.00 0.00 65 1018.0
20260507205117 16 0.0 0.0 0.00 0.00 0.00 63 1018.0
20260507204616 16 65 1.6 3.2 0.00 0.00 0.00 63 1018.1
20260507204117 17 0.0 0.0 0.00 0.00 0.00 61 1018.0
20260507203637 16 73 1.6 3.2 0.00 0.00 0.00 62 1018.1
20260507203137 15 81 1.6 4.8 0.00 0.00 0.00 64 1018.3
20260507202618 15 0.0 0.0 0.00 0.00 0.00 67 1018.4
20260507202117 16 0.0 0.0 0.00 0.00 0.00 65 1018.5
20260507201617 15 102 0.0 1.6 0.00 0.00 0.00 66 1018.5
20260507201117 16 121 1.6 3.2 0.00 0.00 0.00 64 1018.4
20260507200617 16 123 1.6 3.2 0.00 0.00 0.00 62 1018.6
20260507200137 15 75 1.6 3.2 0.00 0.00 0.00 65 1018.6
20260507195638 15 0.0 0.0 0.00 0.00 0.00 69 1018.6
20260507195117 16 59 3.2 6.4 0.00 0.00 0.00 64 1018.6
20260507194638 15 117 0.0 1.6 0.00 0.00 0.00 69 1018.7
20260507194117 15 107 1.6 1.6 0.00 0.00 0.00 68 1018.8
20260507193617 15 87 1.6 1.6 0.00 0.00 0.00 69 1018.6
20260507193117 14 103 0.0 1.6 0.00 0.00 0.00 71 1018.8
20260507192617 14 82 0.0 3.2 0.00 0.00 0.00 71 1018.9
20260507192117 13 147 1.6 4.8 0.00 0.00 0.00 71 1018.8
20260507191616 13 77 1.6 3.2 0.00 0.00 0.00 72 1018.9
20260507191117 13 114 1.6 3.2 0.00 0.00 0.00 72 1018.9
20260507190618 13 85 0.0 3.2 0.00 0.00 0.00 72 1019.1
20260507190117 13 70 1.6 3.2 0.00 0.00 0.00 74 1019.0
20260507185617 13 98 0.0 1.6 0.00 0.00 0.00 74 1019.0
20260507185117 13 152 1.6 4.8 0.00 0.00 0.00 73 1019.0
20260507184617 14 43 1.6 3.2 0.00 0.00 0.00 70 1019.1
20260507184137 13 0.0 0.0 0.00 0.00 0.00 73 1019.1
20260507183637 13 0.0 0.0 0.00 0.00 0.00 70 1019.0
20260507183137 13 105 0.0 1.6 0.00 0.00 0.00 73 1019.1
20260507182617 13 42 1.6 6.4 0.00 0.00 0.00 73 1019.4
20260507182117 13 68 3.2 3.2 0.00 0.00 0.00 73 1019.2
20260507181618 14 351 0.0 3.2 0.00 0.00 0.00 71 1019.2
20260507181117 14 112 1.6 3.2 0.00 0.00 0.00 71 1019.2
20260507180617 13 116 0.0 3.2 0.00 0.00 0.00 74 1019.2
20260507180117 13 88 0.0 1.6 0.00 0.00 0.00 77 1019.1
20260507175617 12 84 0.0 3.2 0.00 0.00 0.00 77 1019.4
20260507175117 12 54 0.0 1.6 0.00 0.00 0.00 78 1019.4
20260507174617 12 0.0 0.0 0.00 0.00 0.00 78 1019.5
20260507174118 12 56 1.6 4.8 0.00 0.00 0.00 77 1019.4
20260507173637 12 110 0.0 1.6 0.00 0.00 0.00 78 1019.5
20260507173118 12 44 1.6 6.4 0.00 0.00 0.00 79 1019.5
20260507172618 12 83 0.0 1.6 0.00 0.00 0.00 79 1019.6
20260507172117 12 77 3.2 4.8 0.00 0.00 0.00 79 1019.4
20260507171637 12 52 6.4 11.3 0.00 0.00 0.00 78 1019.4
20260507171117 12 91 0.0 1.6 0.00 0.00 0.00 79 1019.6
20260507170617 12 73 3.2 4.8 0.00 0.00 0.00 79 1019.5
20260507170157 12 0.0 0.0 0.00 0.00 0.00 79 1019.4
20260507165617 12 19 3.2 4.8 0.00 0.00 0.00 79 1019.4
20260507165117 12 116 0.0 1.6 0.00 0.00 0.00 78 1019.3
20260507164638 12 91 0.0 1.6 0.00 0.00 0.00 80 1019.5
20260507164137 12 100 0.0 1.6 0.00 0.00 0.00 79 1019.6
20260507163717 13 108 0.0 1.6 0.00 0.00 0.00 76 1019.3
20260507163117 13 95 0.0 3.2 0.00 0.00 0.00 76 1019.4
20260507162617 12 87 0.0 1.6 0.00 0.00 0.00 75 1019.5
20260507162117 12 0.0 0.0 0.00 0.00 0.00 78 1019.4
20260507161617 12 120 0.0 1.6 0.00 0.00 0.00 79 1019.5
20260507161138 11 74 3.2 4.8 0.00 0.00 0.00 78 1019.5
20260507160637 11 0.0 0.0 0.00 0.00 0.00 81 1019.5
20260507160158 11 0.0 0.0 0.00 0.00 0.00 82 1019.5
20260507155617 11 118 0.0 1.6 0.00 0.00 0.00 81 1019.6
20260507155117 11 99 0.0 1.6 0.00 0.00 0.00 82 1019.6
20260507154617 11 0.0 0.0 0.00 0.00 0.00 83 1019.7
20260507154117 11 106 0.0 1.6 0.00 0.00 0.00 82 1019.6
20260507153617 11 122 0.0 1.6 0.00 0.00 0.00 83 1019.6
20260507153117 11 0.0 0.0 0.00 0.00 0.00 86 1019.6
20260507152656 11 0.0 0.0 0.00 0.00 0.00 84 1019.7
20260507152117 11 106 0.0 1.6 0.00 0.00 0.00 84 1019.6
20260507151617 10 0.0 0.0 0.00 0.00 0.00 85 1019.8
20260507151117 10 0.0 0.0 0.00 0.00 0.00 85 1019.8
20260507150617 10 101 1.6 3.2 0.00 0.00 0.00 84 1019.8
20260507150137 10 137 0.0 3.2 0.00 0.00 0.00 84 1019.9
20260507145617 10 160 1.6 6.4 0.00 0.00 0.00 84 1019.8
20260507145137 10 139 1.6 4.8 0.00 0.00 0.00 84 1019.9
20260507144617 10 154 3.2 4.8 0.00 0.00 0.00 85 1019.9
20260507144116 10 124 1.6 3.2 0.00 0.00 0.00 85 1019.8
20260507143617 10 101 0.0 1.6 0.00 0.00 0.00 85 1019.7
20260507143117 10 138 1.6 3.2 0.00 0.00 0.00 85 1019.8
20260507142617 10 142 1.6 3.2 0.00 0.00 0.00 85 1019.7
20260507142117 10 0.0 0.0 0.00 0.00 0.00 85 1019.9
20260507141617 10 0.0 0.0 0.00 0.00 0.00 86 1019.9
20260507141117 10 0.0 0.0 0.00 0.00 0.00 86 1019.8
20260507140617 10 0.0 0.0 0.00 0.00 0.00 86 1019.8
20260507140117 10 0.0 0.0 0.00 0.00 0.00 86 1019.9
20260507135617 10 0.0 0.0 0.00 0.00 0.00 86 1019.8
20260507135118 9 0.0 0.0 0.00 0.00 0.00 86 1019.7
20260507134617 9 0.0 0.0 0.00 0.00 0.00 87 1019.6
20260507134117 9 0.0 0.0 0.00 0.00 0.00 88 1019.7
20260507133617 9 0.0 0.0 0.00 0.00 0.00 87 1019.6
20260507133137 9 0.0 0.0 0.00 0.00 0.00 87 1019.6
20260507132617 9 0.0 0.0 0.00 0.00 0.00 89 1019.7
20260507132117 9 0.0 0.0 0.00 0.00 0.00 89 1019.6
20260507131617 8 0.0 0.0 0.00 0.00 0.00 89 1019.6
20260507131117 8 0.0 0.0 0.00 0.00 0.00 89 1019.7
20260507130618 8 0.0 0.0 0.00 0.00 0.00 89 1019.6
20260507130117 8 0.0 0.0 0.00 0.00 0.00 89 1019.6
20260507125617 8 0.0 0.0 0.00 0.00 0.00 90 1019.6
20260507125117 8 0.0 0.0 0.00 0.00 0.00 90 1019.7
20260507124617 8 0.0 0.0 0.00 0.00 0.00 90 1019.7
20260507124117 8 0.0 0.0 0.00 0.00 0.00 90 1019.8
20260507123617 8 0.0 0.0 0.00 0.00 0.00 90 1019.8
20260507123137 8 0.0 0.0 0.00 0.00 0.00 89 1019.8
20260507122617 8 0.0 0.0 0.00 0.00 0.00 90 1019.7
20260507122117 9 0.0 0.0 0.00 0.00 0.00 89 1019.9
20260507121617 9 0.0 0.0 0.00 0.00 0.00 89 1019.9
20260507121117 9 0.0 0.0 0.00 0.00 0.00 88 1019.8
20260507120617 9 0.0 0.0 0.00 0.00 0.00 88 1019.9
20260507120117 9 0.0 0.0 0.00 0.00 0.00 88 1019.8
20260507115617 9 0.0 0.0 0.00 0.00 0.00 89 1020.0
20260507115117 9 0.0 0.0 0.00 0.00 0.00 89 1020.0
20260507114617 9 0.0 0.0 0.00 0.00 0.00 88 1020.3
20260507114118 9 0.0 0.0 0.00 0.00 0.00 89 1020.3
20260507113618 9 0.0 0.0 0.00 0.00 0.00 88 1020.2
20260507113118 9 0.0 0.0 0.00 0.00 0.00 89 1020.2
20260507112617 9 0.0 0.0 0.00 0.00 0.00 89 1020.2
20260507112117 9 0.0 0.0 0.00 0.00 0.00 89 1020.2
20260507111617 9 0.0 0.0 0.00 0.00 0.00 90 1020.0
20260507111117 9 0.0 0.0 0.00 0.00 0.00 90 1020.1
20260507110617 9 0.0 0.0 0.00 0.00 0.00 90 1020.2
20260507110117 9 0.0 0.0 0.00 0.00 0.00 90 1020.1
20260507105637 9 0.0 0.0 0.00 0.00 0.00 90 1020.2
20260507105117 9 0.0 0.0 0.00 0.00 0.00 91 1020.2
20260507104617 8 0.0 0.0 0.00 0.00 0.00 91 1020.3
20260507104117 8 0.0 0.0 0.00 0.00 0.00 93 1020.1
20260507103617 8 0.0 0.0 0.00 0.00 0.00 93 1020.3
20260507103117 9 0.0 0.0 0.00 0.00 0.00 93 1020.4
20260507102617 8 0.0 0.0 0.00 0.00 0.00 92 1020.3
20260507102117 8 0.0 0.0 0.00 0.00 0.00 92 1020.3
20260507101617 8 0.0 0.0 0.00 0.00 0.00 92 1020.3
20260507101118 9 0.0 0.0 0.00 0.00 0.00 92 1020.3
20260507100618 9 0.0 0.0 0.00 0.00 0.00 92 1020.4
20260507100118 9 0.0 0.0 0.00 0.00 0.00 92 1020.3
20260507095617 9 0.0 0.0 0.00 0.00 0.00 92 1020.3
20260507095117 9 0.0 0.0 0.00 0.00 0.00 92 1020.3
20260507094617 9 0.0 0.0 0.00 0.00 0.00 92 1020.2
20260507094117 9 0.0 0.0 0.00 0.00 0.00 91 1020.2
20260507093617 9 0.0 0.0 0.00 0.00 0.00 91 1020.3
20260507093117 9 0.0 0.0 0.00 0.00 0.00 91 1020.3
20260507092618 9 0.0 0.0 0.00 0.00 0.00 91 1020.3
20260507092118 9 0.0 0.0 0.00 0.00 0.00 92 1020.2
20260507091637 9 0.0 0.0 0.00 0.00 0.00 92 1020.2
20260507091117 9 0.0 0.0 0.00 0.00 0.00 92 1020.4
20260507090617 9 0.0 0.0 0.00 0.00 0.00 92 1020.1
20260507090117 10 0.0 0.0 0.00 0.00 0.00 92 1020.2
20260507085617 10 0.0 0.0 0.00 0.00 0.00 91 1020.2
20260507085117 10 0.0 0.0 0.00 0.00 0.00 91 1020.1
20260507084617 10 0.0 0.0 0.00 0.00 0.00 91 1020.2
20260507084117 10 125 1.6 3.2 0.00 0.00 0.00 91 1020.1
20260507083637 10 0.0 0.0 0.00 0.00 0.00 92 1020.2
20260507083117 10 0.0 0.0 0.00 0.00 0.00 92 1020.2
20260507082617 10 0.0 0.0 0.00 0.00 0.00 92 1020.2
20260507082117 10 0.0 0.0 0.00 0.00 0.00 93 1020.1
20260507081617 10 0.0 0.0 0.00 0.00 0.00 93 1020.2
20260507081117 10 0.0 0.0 0.00 0.00 0.00 93 1020.1
20260507080617 10 103 0.0 1.6 0.00 0.00 0.00 93 1020.1
20260507080117 10 0.0 0.0 0.00 0.00 0.00 93 1020.2
20260507075618 10 0.0 0.0 0.00 0.00 0.00 93 1020.2
20260507075117 10 0.0 0.0 0.00 0.00 0.00 94 1020.3
20260507074617 10 104 0.0 1.6 0.00 0.00 0.00 93 1020.3
20260507074137 10 0.0 0.0 0.00 0.00 0.00 93 1020.5
20260507073637 10 0.0 0.0 0.00 0.00 0.00 93 1020.1
20260507073117 11 0.0 0.0 0.00 0.00 0.00 93 1020.3
20260507072617 11 145 1.6 3.2 0.00 0.00 0.00 93 1020.3
20260507072117 11 101 0.0 1.6 0.00 0.00 0.00 92 1020.2
20260507071617 11 0.0 0.0 0.00 0.00 0.00 92 1020.2
20260507071118 11 0.0 0.0 0.00 0.00 0.00 92 1020.1
20260507070617 11 111 0.0 1.6 0.00 0.00 0.00 91 1020.1
20260507070118 11 0.0 0.0 0.00 0.00 0.00 91 1020.2
20260507065617 11 0.0 0.0 0.00 0.00 0.00 91 1020.3
20260507065117 11 0.0 0.0 0.00 0.00 0.00 91 1020.2
20260507064617 11 127 1.6 3.2 0.00 0.00 0.00 91 1020.1
20260507064117 11 0.0 0.0 0.00 0.00 0.00 91 1020.2
20260507063617 11 0.0 0.0 0.00 0.00 0.00 91 1020.1
20260507063117 11 0.0 0.0 0.00 0.00 0.00 91 1020.0
20260507062616 11 0.0 0.0 0.00 0.00 0.00 90 1020.1
20260507062117 11 0.0 0.0 0.00 0.00 0.00 90 1020.1
20260507061637 11 0.0 0.0 0.00 0.00 0.00 90 1020.1
20260507061118 11 0.0 0.0 0.00 0.00 0.00 90 1020.2
20260507060617 11 0.0 0.0 0.00 0.00 0.00 89 1020.1
20260507060117 11 0.0 0.0 0.00 0.00 0.00 89 1020.2
20260507055637 11 0.0 0.0 0.00 0.00 0.00 89 1020.0
20260507055137 11 0.0 0.0 0.00 0.00 0.00 88 1020.1
20260507054617 11 80 1.6 3.2 0.00 0.00 0.00 88 1020.2
20260507054116 11 91 0.0 1.6 0.00 0.00 0.00 87 1020.0
20260507053618 11 106 0.0 1.6 0.00 0.00 0.00 87 1020.0
20260507053118 11 90 0.0 1.6 0.00 0.00 0.00 86 1020.0
20260507052617 12 0.0 0.0 0.00 0.00 0.00 86 1020.1
20260507052117 12 0.0 0.0 0.00 0.00 0.00 85 1020.1
20260507051617 12 0.0 0.0 0.00 0.00 0.00 85 1020.1
20260507051137 12 0.0 0.0 0.00 0.00 0.00 84 1020.1
20260507050617 12 0.0 0.0 0.00 0.00 0.00 85 1020.1
20260507050117 12 0.0 0.0 0.00 0.00 0.00 85 1020.1
20260507045637 12 0.0 0.0 0.00 0.00 0.00 85 1020.0
20260507045117 12 0.0 0.0 0.00 0.00 0.00 84 1020.1
20260507044617 12 0.0 0.0 0.00 0.00 0.00 85 1020.1
20260507044117 12 0.0 0.0 0.00 0.00 0.00 85 1020.0
20260507043617 12 0.0 0.0 0.00 0.00 0.00 85 1020.0
20260507043137 12 0.0 0.0 0.00 0.00 0.00 84 1020.0
20260507042617 12 0.0 0.0 0.00 0.00 0.00 83 1020.2
20260507042137 12 0.0 0.0 0.00 0.00 0.00 84 1020.1
20260507041617 12 102 0.0 1.6 0.00 0.00 0.00 83 1020.0
20260507041116 12 0.0 0.0 0.00 0.00 0.00 84 1020.2
20260507040617 12 132 1.6 4.8 0.00 0.00 0.00 83 1020.0
20260507040138 12 0.0 0.0 0.00 0.00 0.00 83 1019.9
20260507035617 12 0.0 0.0 0.00 0.00 0.00 83 1019.9
20260507035117 12 0.0 0.0 0.00 0.00 0.00 83 1019.8
20260507034617 12 0.0 0.0 0.00 0.00 0.00 83 1019.8
20260507034117 12 0.0 0.0 0.00 0.00 0.00 83 1019.7
20260507033617 12 0.0 0.0 0.00 0.00 0.00 83 1019.8
20260507033137 12 0.0 0.0 0.00 0.00 0.00 83 1019.6
20260507032616 12 0.0 0.0 0.00 0.00 0.00 83 1019.6
20260507032117 12 0.0 0.0 0.00 0.00 0.00 82 1019.7
20260507031618 12 95 0.0 1.6 0.00 0.00 0.00 82 1019.5
20260507031118 12 0.0 0.0 0.00 0.00 0.00 83 1019.4
20260507030637 12 0.0 0.0 0.00 0.00 0.00 82 1019.4
20260507030117 12 0.0 0.0 0.00 0.00 0.00 82 1019.6
20260507025617 12 0.0 0.0 0.00 0.00 0.00 82 1019.5
20260507025137 13 0.0 0.0 0.00 0.00 0.00 82 1019.4
20260507024617 13 0.0 0.0 0.00 0.00 0.00 82 1019.4
20260507024117 13 0.0 0.0 0.00 0.00 0.00 83 1019.4
20260507023618 13 0.0 0.0 0.00 0.00 0.00 82 1019.4
20260507023117 13 0.0 0.0 0.00 0.00 0.00 82 1019.3
20260507022617 13 108 0.0 3.2 0.00 0.00 0.00 82 1019.3
20260507022117 13 109 0.0 3.2 0.00 0.00 0.00 81 1019.3
20260507021617 13 0.0 0.0 0.00 0.00 0.00 81 1019.2
20260507021117 13 0.0 0.0 0.00 0.00 0.00 82 1019.2
20260507020617 13 0.0 0.0 0.00 0.00 0.00 81 1019.3
20260507020137 13 0.0 0.0 0.00 0.00 0.00 81 1019.3
20260507015617 13 0.0 0.0 0.00 0.00 0.00 81 1019.4
20260507015118 13 0.0 0.0 0.00 0.00 0.00 82 1019.2
20260507014617 13 0.0 0.0 0.00 0.00 0.00 82 1019.2
20260507014117 13 0.0 0.0 0.00 0.00 0.00 82 1019.2
20260507013637 13 0.0 0.0 0.00 0.00 0.00 82 1019.2
20260507013117 13 0.0 0.0 0.00 0.00 0.00 82 1019.3
20260507012637 13 0.0 0.0 0.00 0.00 0.00 82 1019.2
20260507012137 13 0.0 0.0 0.00 0.00 0.00 81 1019.2
20260507011617 13 0.0 0.0 0.00 0.00 0.00 81 1019.2
20260507011117 13 0.0 0.0 0.00 0.00 0.00 82 1019.2
20260507010638 13 0.0 0.0 0.00 0.00 0.00 81 1019.2
20260507010118 13 0.0 0.0 0.00 0.00 0.00 81 1019.3
20260507005617 14 0.0 0.0 0.00 0.00 0.00 79 1019.4
20260507005117 14 0.0 0.0 0.00 0.00 0.00 78 1019.3
20260507004617 14 0.0 0.0 0.00 0.00 0.00 79 1019.3
20260507004117 14 0.0 0.0 0.00 0.00 0.00 77 1019.3
20260507003617 14 48 1.6 3.2 0.00 0.00 0.00 77 1019.4
20260507003117 14 0.0 0.0 0.00 0.00 0.00 78 1019.4
20260507002617 14 106 0.0 1.6 0.00 0.00 0.00 78 1019.3
20260507002117 14 0.0 0.0 0.00 0.00 0.00 78 1019.3
20260507001618 14 92 0.0 1.6 0.00 0.00 0.00 77 1019.2
20260507001117 14 83 0.0 1.6 0.00 0.00 0.00 77 1019.3
20260507000618 14 61 0.0 1.6 0.00 0.00 0.00 78 1019.2
20260507000117 14 100 0.0 3.2 0.00 0.00 0.00 78 1019.3
20260506235637 14 0.0 0.0 0.00 0.00 0.00 78 1019.2
20260506235137 14 0.0 0.0 0.00 0.00 0.00 77 1019.4
20260506234617 14 88 0.0 1.6 0.00 0.00 0.00 77 1019.2
20260506234117 14 0.0 0.0 0.00 0.00 0.00 77 1019.4
20260506233617 14 0.0 0.0 0.00 0.00 0.00 77 1019.2
20260506233138 13 0.0 0.0 0.00 0.00 0.00 79 1019.4
20260506232617 13 0.0 0.0 0.00 0.00 0.00 80 1019.4
20260506232117 13 0.0 0.0 0.00 0.00 0.00 80 1019.3
20260506231617 13 75 1.6 3.2 0.00 0.00 0.00 79 1019.5
20260506231117 13 80 3.2 4.8 0.00 0.00 0.00 79 1019.5
20260506230617 13 0.0 0.0 0.00 0.00 0.00 78 1019.5
20260506230117 13 0.0 0.0 0.00 0.00 0.00 79 1019.5
20260506225617 13 92 0.0 1.6 0.00 0.00 0.00 79 1019.4
20260506225117 13 91 0.0 1.6 0.00 0.00 0.00 79 1019.6
20260506224618 13 0.0 0.0 0.00 0.00 0.00 79 1019.4
20260506224118 13 0.0 0.0 0.00 0.00 0.00 80 1019.5
20260506223617 13 0.0 0.0 0.00 0.00 0.00 79 1019.7
20260506223117 13 50 0.0 3.2 0.00 0.00 0.00 79 1019.6
20260506222617 13 0.0 0.0 0.00 0.00 0.00 82 1019.6
20260506222117 13 0.0 0.0 0.00 0.00 0.00 81 1019.7
20260506221617 13 0.0 0.0 0.00 0.00 0.00 82 1019.8
20260506221117 13 0.0 0.0 0.00 0.00 0.00 81 1019.9
20260506220617 13 83 1.6 3.2 0.00 0.00 0.00 82 1019.8
20260506220117 13 65 1.6 3.2 0.00 0.00 0.00 81 1019.8
20260506215617 13 85 1.6 3.2 0.00 0.00 0.00 80 1019.7
20260506215118 13 0.0 0.0 0.00 0.00 0.00 81 1019.8
20260506214617 13 89 0.0 1.6 0.00 0.00 0.00 81 1019.8
20260506214117 13 0.0 0.0 0.00 0.00 0.00 81 1019.7